Elefsis, Greece

8:50 PM EEST on May 27, 2018 (GMT +0300)
Elefsis Air Base

Weather History for LGEL - October, 2011

Change the Weather History Date:

Monday, October 17, 2011

  Actual Average Record
Temperature  
Mean Temperature 50 °F -  
Max Temperature 53 °F 67 °F 86 °F (2012)
Min Temperature 48 °F 52 °F 48 °F (2011)
Degree Days  
Heating Degree Days 14    
Moisture  
Dew Point 37 °F    
Average Humidity 61    
Maximum Humidity 76    
Minimum Humidity 38    
Precipitation  
Precipitation 0.00 in - - ()
Sea Level Pressure  
Sea Level Pressure 30.08 in    
Wind  
Wind Speed 9 mph ()    
Max Wind Speed 17 mph    
Max Gust Speed 28 mph    
Visibility 6.2 miles    
Events      
Averages and records for this station are not official NWS values.
T = Trace of Precipitation, MM = Missing Value Source: Averaged Metar Reports

Daily Weather History Graph

Daily Weather History Graph

Search for Another Location

Airport or City:

Astronomy

Oct. 17, 2011 Rise Set
Actual Time 7:35 AM EEST 6:46 PM EEST
Civil Twilight 7:09 AM EEST 7:12 PM EEST
Nautical Twilight 6:38 AM EEST 7:43 PM EEST
Astronomical Twilight 6:08 AM EEST 8:13 PM EEST
Moon 10:12 PM EEST (10/17) 12:23 PM EEST (10/17)
Length of Visible Light 12h 03m
Length of Day
11h 10m
Waning Gibbous, 77% of the Moon is Illuminated
Oct 17
Waning Gibbous
Oct 20
Last Quarter
Oct 26
New
Nov 2
First Quarter
Nov 10
Full

Hourly Weather History & Observations

Time (EEST) Temp. Dew Point Humidity Pressure Visibility Wind Dir Wind Speed Gust Speed Precip Events Conditions
12:20 AM 48.2 °F 41.0 °F 76% 30.09 in 6.2 mi NNW 10.4 mph - N/A   Mostly Cloudy
12:50 AM 50.0 °F 41.0 °F 71% 30.09 in 6.2 mi North 10.4 mph - N/A   Mostly Cloudy
1:20 AM 50.0 °F 41.0 °F 71% 30.09 in 6.2 mi NNW 9.2 mph - N/A   Mostly Cloudy
1:50 AM 50.0 °F 41.0 °F 71% 30.09 in 6.2 mi NNW 10.4 mph - N/A   Mostly Cloudy
2:20 AM 50.0 °F 39.2 °F 66% 30.09 in 6.2 mi NNW 9.2 mph - N/A   Mostly Cloudy
2:50 AM 50.0 °F 39.2 °F 66% 30.09 in 6.2 mi NW 9.2 mph - N/A   Mostly Cloudy
3:20 AM 48.2 °F 41.0 °F 76% 30.09 in 6.2 mi NW 8.1 mph - N/A   Mostly Cloudy
3:50 AM 50.0 °F 39.2 °F 66% 30.09 in 6.2 mi NW 8.1 mph - N/A   Mostly Cloudy
4:20 AM 50.0 °F 39.2 °F 66% 30.09 in 6.2 mi NNW 8.1 mph - N/A   Mostly Cloudy
4:50 AM 50.0 °F 39.2 °F 66% 30.09 in 6.2 mi NNW 4.6 mph - N/A   Mostly Cloudy
5:20 AM 50.0 °F 39.2 °F 66% 30.09 in 6.2 mi NNW 6.9 mph - N/A   Mostly Cloudy
5:50 AM 48.2 °F 37.4 °F 66% 30.06 in 6.2 mi NW 10.4 mph - N/A   Mostly Cloudy
6:20 AM 48.2 °F 37.4 °F 66% 30.06 in 6.2 mi NNW 9.2 mph - N/A   Mostly Cloudy
6:50 AM 48.2 °F 37.4 °F 66% 30.04 in 6.2 mi NNW 10.4 mph - N/A   Mostly Cloudy
7:20 AM 48.2 °F 35.6 °F 62% 30.04 in 6.2 mi NNW 11.5 mph - N/A   Mostly Cloudy
7:50 AM 48.2 °F 37.4 °F 66% 30.06 in 6.2 mi NNW 16.1 mph - N/A   Mostly Cloudy
8:20 AM 48.2 °F 37.4 °F 66% 30.06 in 6.2 mi NW 11.5 mph - N/A   Mostly Cloudy
8:50 AM 48.2 °F 37.4 °F 66% 30.06 in 6.2 mi NNW 11.5 mph - N/A   Mostly Cloudy
9:20 AM 48.2 °F 37.4 °F 66% 30.06 in 6.2 mi NNW 11.5 mph - N/A   Mostly Cloudy
9:50 AM 50.0 °F 37.4 °F 62% 30.06 in 6.2 mi NW 11.5 mph - N/A   Mostly Cloudy
10:20 AM 50.0 °F 37.4 °F 62% 30.06 in 6.2 mi NW 17.3 mph - N/A   Mostly Cloudy
10:50 AM 50.0 °F 37.4 °F 62% 30.09 in 6.2 mi NNW 13.8 mph 25.3 mph N/A   Mostly Cloudy
11:20 AM 50.0 °F 37.4 °F 62% 30.09 in 6.2 mi NNW 9.2 mph 20.7 mph N/A   Mostly Cloudy
11:50 AM 51.8 °F 37.4 °F 58% 30.09 in 6.2 mi NW 16.1 mph - N/A   Mostly Cloudy
12:20 PM 50.0 °F 37.4 °F 62% 30.09 in 6.2 mi NNW 13.8 mph - N/A   Mostly Cloudy
12:50 PM 51.8 °F 37.4 °F 58% 30.09 in 6.2 mi NNW 17.3 mph - N/A   Mostly Cloudy
1:20 PM 51.8 °F 37.4 °F 58% 30.09 in 6.2 mi NW 13.8 mph 25.3 mph N/A   Mostly Cloudy
1:50 PM 51.8 °F 37.4 °F 58% 30.09 in 6.2 mi NNW 16.1 mph 27.6 mph N/A   Mostly Cloudy
2:20 PM 53.6 °F 37.4 °F 54% 30.09 in 6.2 mi North 11.5 mph 23.0 mph N/A   Mostly Cloudy
2:50 PM 53.6 °F 37.4 °F 54% 30.06 in 6.2 mi North 11.5 mph 23.0 mph N/A   Mostly Cloudy
3:20 PM 53.6 °F 33.8 °F 47% 30.06 in 6.2 mi NNW 9.2 mph 20.7 mph N/A   Mostly Cloudy
3:50 PM 53.6 °F 33.8 °F 47% 30.04 in 6.2 mi NNW 11.5 mph 23.0 mph N/A   Mostly Cloudy
4:50 PM 53.6 °F 33.8 °F 47% 30.04 in 6.2 mi NNW 17.3 mph - N/A   Partly Cloudy
5:20 PM 53.6 °F 33.8 °F 47% 30.04 in 6.2 mi NNW 15.0 mph - N/A   Partly Cloudy
5:50 PM 53.6 °F 33.8 °F 47% 30.04 in 6.2 mi North 11.5 mph - N/A   Partly Cloudy
6:20 PM 53.6 °F 30.2 °F 41% 30.04 in 6.2 mi WNW 6.9 mph - N/A   Partly Cloudy
6:50 PM 53.6 °F 28.4 °F 38% 30.06 in 6.2 mi NW 4.6 mph - N/A   Partly Cloudy
7:50 PM 51.8 °F 30.2 °F 44% 30.06 in 6.2 mi Calm Calm - N/A   Partly Cloudy
8:20 PM 50.0 °F 30.2 °F 47% 30.06 in 6.2 mi NW 5.8 mph - N/A   Partly Cloudy
8:50 PM 50.0 °F 33.8 °F 54% 30.09 in 6.2 mi Calm Calm - N/A   Partly Cloudy
9:20 PM 50.0 °F 35.6 °F 58% 30.09 in 6.2 mi Calm Calm - N/A   Partly Cloudy
9:50 PM 50.0 °F 37.4 °F 62% 30.09 in 6.2 mi NW 6.9 mph - N/A   Scattered Clouds
10:20 PM 50.0 °F 39.2 °F 66% 30.12 in 6.2 mi Variable 2.3 mph - N/A   Mostly Cloudy
10:50 PM 50.0 °F 39.2 °F 66% 30.12 in 6.2 mi Variable 2.3 mph - N/A   Mostly Cloudy
11:20 PM 50.0 °F 39.2 °F 66% 30.12 in 6.2 mi North 5.8 mph - N/A   Mostly Cloudy
11:50 PM 48.2 °F 39.2 °F 71% 30.12 in 6.2 mi Calm Calm - N/A   Mostly Cloudy